Weather History for KZZV - March, 2013

Change the Weather History Date:

Saturday, March 23, 2013

  Actual Average Record
Temperature  
Mean Temperature 34 °F 43 °F  
Max Temperature 48 °F 54 °F 83 °F (2012)
Min Temperature 19 °F 32 °F 14 °F (1960)
Degree Days  
Heating Degree Days 31 22  
Month to date heating degree days 679 590  
Since 1 July heating degree days 4810 4781  
Cooling Degree Days 0 0  
Month to date cooling degree days 0 0  
Year to date cooling degree days 0 0  
Moisture  
Dew Point 19 °F    
Average Humidity 60    
Maximum Humidity 91    
Minimum Humidity 29    
Precipitation  
Precipitation 0.00 in 0.10 in 1.29 in (2007)
Month to date precipitation 1.80 2.12  
Year to date precipitation 6.28 6.95  
Sea Level Pressure  
Sea Level Pressure 30.03 in    
Wind  
Wind Speed 3 mph (North)    
Max Wind Speed 13 mph    
Max Gust Speed 21 mph    
Visibility 10 miles    
Events      
T = Trace of Precipitation, MM = Missing Value Source: NWS Daily Summary

Daily Weather History Graph

Daily Weather History Graph

Search for Another Location

Airport or City:

Trip Planner

Search our weather history database for the weather conditions in past years. The results will help you decide how hot, cold, wet, or windy it might be!

Date:

Astronomy

Mar. 23, 2013 Rise Set
Actual Time 7:25 AM EDT 7:42 PM EDT
Civil Twilight 6:58 AM EDT 8:10 PM EDT
Nautical Twilight 6:27 AM EDT 8:41 PM EDT
Astronomical Twilight 5:54 AM EDT 9:14 PM EDT
Moon 4:08 PM EDT (3/23) 5:01 AM EDT (3/23)
Length of Visible Light 13h 11m
Length of Day
12h 17m
Waxing Gibbous, 85% of the Moon is Illuminated
Mar 23
Waxing Gibbous
Mar 27
Full
Apr 3
Last Quarter
Apr 10
New
Apr 18
First Quarter

Hourly Weather History & Observations

Time (EDT) Temp. Windchill Dew Point Humidity Pressure Visibility Wind Dir Wind Speed Gust Speed Precip Events Conditions
12:53 AM 27.0 °F - 18.0 °F 69% 30.04 in 10.0 mi Calm Calm - N/A   Clear
1:53 AM 25.0 °F - 18.0 °F 75% 30.04 in 10.0 mi Calm Calm - N/A   Clear
2:53 AM 23.0 °F - 18.0 °F 81% 30.03 in 10.0 mi Calm Calm - N/A   Clear
3:53 AM 21.9 °F - 18.0 °F 85% 30.03 in 10.0 mi Calm Calm - N/A   Clear
4:53 AM 21.9 °F - 18.0 °F 85% 30.03 in 10.0 mi Calm Calm - N/A   Clear
5:53 AM 19.9 °F - 17.1 °F 89% 30.02 in 10.0 mi Calm Calm - N/A   Clear
6:53 AM 21.0 °F - 17.1 °F 85% 30.04 in 10.0 mi Calm Calm - N/A   Clear
7:53 AM 19.9 °F - 17.1 °F 89% 30.05 in 9.0 mi Calm Calm - N/A   Clear
8:53 AM 25.0 °F - 21.0 °F 85% 30.08 in 10.0 mi Calm Calm - N/A   Clear
9:53 AM 30.9 °F - 23.0 °F 72% 30.08 in 10.0 mi Calm Calm - N/A   Clear
10:53 AM 37.9 °F - 24.1 °F 57% 30.07 in 10.0 mi Calm Calm - N/A   Clear
11:53 AM 42.1 °F 36.6 °F 19.9 °F 41% 30.07 in 10.0 mi West 9.2 mph - N/A   Clear
12:53 PM 42.1 °F - 19.0 °F 40% 30.05 in 10.0 mi Calm Calm - N/A   Clear
1:53 PM 45.0 °F 41.8 °F 19.9 °F 37% 30.04 in 10.0 mi North 5.8 mph - N/A   Clear
2:53 PM 46.9 °F - 19.0 °F 33% 30.03 in 10.0 mi NNW 10.4 mph - N/A   Clear
3:53 PM 46.9 °F - 19.0 °F 33% 30.01 in 10.0 mi Calm Calm - N/A   Clear
4:53 PM 48.0 °F - 19.0 °F 32% 30.02 in 10.0 mi Variable 5.8 mph - N/A   Clear
5:53 PM 48.0 °F - 17.1 °F 29% 30.00 in 10.0 mi NNW 5.8 mph - N/A   Clear
6:53 PM 45.0 °F 40.1 °F 19.9 °F 37% 30.00 in 10.0 mi NNW 9.2 mph - N/A   Clear
7:53 PM 42.1 °F - 18.0 °F 38% 30.01 in 10.0 mi Calm Calm - N/A   Clear
8:53 PM 39.9 °F - 19.9 °F 45% 30.02 in 10.0 mi Calm Calm - N/A   Clear
9:53 PM 37.9 °F 34.4 °F 21.0 °F 51% 30.03 in 10.0 mi NNE 4.6 mph - N/A   Clear
10:53 PM 36.0 °F 32.1 °F 21.9 °F 57% 29.99 in 10.0 mi NNE 4.6 mph - N/A   Clear
11:53 PM 34.0 °F 28.0 °F 23.0 °F 64% 29.97 in 10.0 mi NE 6.9 mph - N/A   Clear